View from above orbital plane
|
View from above satellite
|
Ground track
|
The orbit data is extracted from the following two-line orbital elements,
1 14781U 84021B 21056.47808568 .00000180 00000-0 28022-4 0 9993
2 14781 97.5917 61.8425 0009992 90.0180 270.2180 14.83251067969331
Epoch (UTC): | 25 February 2021 11:28:26 |
Eccentricity: | 0.0009992 |
inclination: | 97.5917° |
perigee height: | 612 km |
apogee height: | 626 km |
right ascension of ascending node: | 61.8425° |
argument of perigee: | 90.0180° |
revolutions per day: | 14.83251067 |
mean anomaly at epoch: | 270.2180° |
orbit number at epoch: | 96933 |
The dashed part of the orbit path shows where the satellite is in the earth's shadow,
|
|